Etusivu
METAR-TAF:

METAR-TAF

Lentoasemat :

Reno, Nevada, Yhdysvallat

Leveyspiiri: 39-40-05N, Pituuspiiri: 119-52-35W, korkeus merenpinnasta: 1539 m

Tämänhetkinen sää

Tämä raportti tehtiin 21 minuuttia sitten, kello 00.55 UTC
Tuuli 11 kn kaakosta
Lämpötila 17°C
Kosteus 13%
Ilmanpaine 1021 hPa
Näkyvyys: 16.1 km
selkeää

METAR: KRTS 090055Z AUTO 13011KT 10SM CLR 17/M12 A3015 RMK AO2

Aika: 18:16 (01:16 UTC)


TAF: puuttuu

Säähavainnot ja -ennusteet yli 4000 lentoasemalta (METAR- ja TAF-raportit).

Käytössä olevat sääasemat on merkitty karttaan keltaisilla ja punaisilla pisteillä.

Aseta hiiri pisteen päälle nähdäksesi sääaseman nimen.

Klikkaa sitten nähdäksesi säähavainnot ja -ennusteet.

Kartan vaihtaminen: klikkaa mustalla rastilla varustettuja vihreitä pisteitä, niin voit zoomata sisään; viivalla varustettua vihreää pistettä, niin voit zoomata ulos tai vihreitä nuolia, niin pääset viereisille kartoille.


METAR-TAF: